Location: Oriwa
(40.7500°S, 175.3333°E)
Time: 11:45:17
(UTC+00:00)

Meteor 1-28 Rocket - Pass Details

Date: 03 February 2023
Orbit: 492 x 511 km, 97.4° (Epoch: 30 March)

Event Time Altitude Azimuth Distance (km) Brightness Sun altitude
Rises 15:49:11 0° 175° (S) 2,622 7.5 -16.9°
Reaches altitude 10° 15:51:20 10° 181° (S) 1,727 6.4 -16.5°
Maximum altitude 15:54:53 44° 254° (WSW) 700 3.6 -16.0°
Enters shadow 15:56:02 33° 300° (WNW) 864 3.7 -15.9°
